Tracking 19827 objects as of 23-Aug-2019
HD Live streaming from Space Station
objects crossing your sky now

FENGYUN 1C DEB


FENGYUN 1C DEB is no longer on orbit


NORAD ID: 31824
Int'l Code: 1999-025CHN
Perigee: N/A
Apogee: N/A
Inclination: N/A
Period: N/A
Semi major axis: N/A
RCS: N/A
Launch date: May 10, 1999
Source: People's Republic of China (PRC)
Launch site: Taiyaun Space Center, China (TSC)
Decay date: 2011-10-04

Note: This is SATELLITE DEBRIS
aabbcc
Your satellite tracking list
Your tracking list is empty




NASA's NSSDC Master Catalog

Two Line Element Set (TLE):
1 31824U 99025CHN 11268.39233040  .00636328  15485-3  20452-2 0  9994
2 31824 097.9147 326.0756 0066304 274.2400 085.1707 15.87229289238075
Source of the keplerian elements: AFSPC